Hourly Data Report for November 05, 2017

All times are specified in Local Standard Time (LST). Add 1 hour to adjust for Daylight Saving Time where and when it is observed.

GREENWOOD A
NOVA SCOTIA

44°59'00.000" N
64°55'00.000" W
28.00 m
8202000
71397
YZX

Download Data

Hourly Data (November 2017)
Hourly Data Report for November 5, 2017
Temp Definition
°C
Dew Point Temp Definition
°C
Rel Hum Definition
%
Wind Dir Definition
10's deg

Wind Spd Definition
km/h
Visibility Definition
km
Stn Press Definition
kPa
Hmdx Definition


Wind Chill Definition


Weather Definition


TIME
00:00 3.3 -4.8 55 2 17 24.1 102.89     Mainly Clear
01:00 2.4 -4.4 61 3 9 24.1 102.94     Mainly Clear
02:00 1.1 -4.4 67 8 4 24.1 103.03     Mainly Clear
03:00 0.0 -4.0 74 9 6 24.1 103.00   -2 Mostly Cloudy
04:00 0.4 -3.8 73   0 24.1 103.05     Mostly Cloudy
05:00 0.4 -3.8 73 5 6 24.1 103.08     Mostly Cloudy
06:00 0.8 -3.9 71   0 24.1 103.13     Mostly Cloudy
07:00 1.1 -3.2 73 4 4 24.1 103.18     Mostly Cloudy
08:00 0.9 -2.6 77 7 4 24.1 103.24     Mostly Cloudy
09:00 2.6 -2.8 68 5 6LegendEE 24.1 103.24     Mostly Cloudy
10:00 5.4 -3.8 51 10 19 24.1 103.19     Mostly Cloudy
11:00 6.7 -3.6 48 15 11 24.1 103.16     Mostly Cloudy
12:00 7.7 -2.4 49 13 22 24.1 103.03     Mostly Cloudy
13:00 8.2 -0.8 53 16 15 24.1 102.97     Mostly Cloudy
14:00 8.6 0.9 58 12 11 24.1 102.89     Cloudy
15:00 9.2 1.9 60 14 11 24.1 102.84     Cloudy
16:00 9.2 3.2 66 13 9 24.1 102.76     Mostly Cloudy
17:00 9.4 4.1 69 12 4 24.1 102.73     Mostly Cloudy
18:00 9.2 5.0 75 12 17 24.1 102.64     Mostly Cloudy
19:00 9.7 5.8 77 13 7 24.1 102.62     Mostly Cloudy
20:00 9.9 5.8 76 15 20 24.1 102.50     Mostly Cloudy
21:00 10.1 6.9 80 14 15 24.1 102.46     Mostly Cloudy
22:00 10.7 7.9 83 15 19 24.1 102.35     Mostly Cloudy
23:00 11.3 8.4 82 16 19 24.1 102.18     Mainly Clear

Notes on Data Quality.

Legend

  • E = Estimated
  • M = Missing
  • NA = Not Available
  • ‡ = Partner data that is not subject to review by the National Climate Archives
Date modified: